Location: Fluertsh�userhof
(48.7537°N, 10.3850°E)
Time: 04:13:48
(UTC+00:00)

Cosmos 1626 - Pass Details

Date: 18 January 2021
Orbit: 490 x 493 km, 82.5° (Epoch: 07 March)

Event Time Altitude Azimuth Distance (km) Brightness Sun altitude
Rises 17:21:42 0° 204° (SSW) 2,565 6.3 -14.0°
Reaches altitude 10° 17:23:52 10° 211° (SSW) 1,688 5.5 -14.4°
Maximum altitude 17:27:24 43° 284° (WNW) 705 3.3 -14.9°
Drops below altitude 10° 17:30:59 10° 357° (N) 1,701 4.7 -15.5°
Sets 17:33:11 0° 5° (N) 2,588 5.6 -15.8°
